THORAD DELTA 1 DEB, 14880

Orbit data source: Space-Track

THORAD DELTA 1 DEB, 14880 is space debris in SSO originally from a launch on Fri, 15 Nov 1974 UTC launched from the Air Force Western Test Range (AFWTR). Debris objects in space refer to the collection of defunct objects orbiting the Earth. Examples of debris include non-operational satellites, rocket bodies, and fragments generated from explosions, collisions, or faulty payload assembly.

Loading next visibility...
Identifier
14880, 1974-089ET
Orbit
SSO
Country
Flag of USUS
Related business
Manufacturer
Unknown
Mission
Spacecraft
Bus & Motor
Unknown
Mass
Unknown
Launch date (UTC)
1974-11-15 (51 years ago)
Launch vehicle
Unknown
Launch site
Air Force Western Test Range (AFWTR)
Object type
Payload
Rocket body
Debris
Shape & HBR
Unknown shape, 0.1 m
Radar Cross Section
Small (<0.1 m²)

Expand to show TLE details & history
Last TLE update: 6 hours ago

TLE from 6 hours ago
0 THORAD DELTA 1 DEB
1 14880U 74089ET  26095.61029186  .00000035  00000-0  60047-3 0  9992
2 14880 101.2212  36.5465 0152949 159.8863  23.5164 12.30539677   476
Epoch: 2026-04-05T14:38Z
TLE epoch observation values (Epoch: 2026-04-05T14:38:49.216Z)
Latitude
-4.16366°
Longitude
162.10476°
Altitude
1,439.305 km
Speed
7.192 km/s
True Right ascension
14h 22m 53s
True Declination
-4° 08' 28"
Sunlit
Object was in full shadow at epoch
Visualization orbit readout
Latitude
Unknown
Longitude
Unknown
Altitude
Unknown
Speed
Unknown
Apparent Right ascension
Unknown
Apparent Declination
Unknown
Sunlit
N/A
Visualization observer readout
Local Sidereal Time
03:00:08
Azimuth
Unknown
Elevation
Unknown
Doppler factor
Unknown
Orbital elements
Apogee altitude
1,665.681 km
Perigee altitude
1,423.329 km
Semi-major axis
7,922.642 km
Eccentricity
0.01529
Inclination
101.2212°
RAAN
36.5465°
Arg. of periapsis
159.8863°
True anomaly
24.22819°
Mean anomaly
23.5164°
Eccentric anomaly
23.87103°
Mean motion
3.07778 °/min
Orbital period
116.97 mins
BSTAR
0.00060047
Loading maneuver chart data...
Computing Atmospheric mass density...

Documentation

Showing up to 5 results
|